Location: Unspecified
(50.0830°N, 0.0000°E)
Time: 23:50:33
(UTC+00:00)

Envisat - Pass Details

Date: 22 November 2019
Orbit: 764 x 766 km, 98.1° (Epoch: 12 December)

Event Time Altitude Azimuth Distance (km) Brightness Sun altitude
Rises 05:46:42 0° 25° (NNE) 3,244 6.4 -15.2°
Reaches altitude 10° 05:49:35 10° 41° (NE) 2,312 5.8 -14.7°
Maximum altitude 05:53:24 21° 90° (E) 1,671 5.8 -14.1°
Drops below altitude 10° 05:57:12 10° 139° (SE) 2,298 6.4 -13.5°
Sets 06:00:02 0° 155° (SSE) 3,219 6.9 -13.1°
